User: anonymous   Login
Location: Betz
(49.1556°N, 2.9558°E)
Time: 04:16:10
(UTC+00:00)
Language:

CZ-2D R/B - Orbit

View from above orbital plane
View from above orbital plane
View from above satellite
View from above satellite

Ground track
Ground track

The orbit data is extracted from the following two-line orbital elements,

1 28738U 05024B   19320.08770484  .00000373  00000-0  25412-4 0  9993
2 28738  97.4025 344.5473 0011470 196.8698 163.2153 15.11906684789036
Epoch (UTC): 16 November 2019 02:06:17
Eccentricity: 0.0011470
inclination: 97.4025°
perigee height: 522 km
apogee height: 538 km
right ascension of ascending node: 344.5473°
argument of perigee: 196.8698°
revolutions per day: 15.11906684
mean anomaly at epoch: 163.2153°
orbit number at epoch: 78903

The dashed part of the orbit path shows where the satellite is in the earth's shadow,  

DLR